Probability
0 0 0 0 0 0 0 0 0 0 0 0 0 0 1 3 12 33 62 84 94 98 99 100 99 99 99 100 100 100 100 100 100 100 100 99 98 99 100 98 95 88 77 68
0 0 0 0 0 0 0 0 0 0 0 0 0 0 0 4 18 43 70 88 96 98 99 100 100 100 100 100 100 99 99 99 99 99 99 99 98 96 96 96 95 88 74 62
0 0 0 0 0 0 0 0 0 0 0 0 0 0 0 5 23 52 77 90 95 97 99 99 100 99 99 99 99 98 97 97 96 96 97 98 95 91 89 89 90 86 75 65
0 0 0 0 0 0 0 0 0 0 0 0 0 0 0 6 29 62 84 92 96 98 99 98 97 95 94 94 94 93 92 92 92 92 96 97 93 87 80 76 76 77 76 74
0 0 0 0 0 0 0 0 0 0 0 0 0 0 0 10 41 76 92 96 97 96 94 92 91 88 84 81 81 83 86 89 89 89 93 95 91 80 65 55 54 59 67 74
0 0 0 0 0 0 0 0 0 0 0 0 0 0 2 19 55 87 98 97 91 82 75 74 77 79 77 73 73 77 84 87 84 81 84 84 75 60 43 33 31 35 46 55
0 0 0 0 0 0 0 0 0 0 0 0 0 4 18 43 73 94 99 95 80 61 50 51 57 62 67 69 71 75 82 85 77 69 66 59 45 32 22 17 14 15 19 22
0 0 0 0 0 0 0 0 0 0 0 0 0 12 42 70 85 92 92 81 61 39 31 32 34 38 45 54 64 71 76 77 68 55 43 30 19 13 10 7 4 3 3 3
0 0 0 0 0 0 0 0 2 3 2 0 0 15 50 76 78 76 69 52 31 17 16 17 17 18 23 33 47 57 60 56 46 33 20 11 6 6 4 2 0 0 0 0
0 0 0 0 0 0 0 0 4 7 3 0 0 11 37 62 66 55 39 21 8 3 4 6 6 7 10 16 26 32 32 27 18 10 5 2 2 2 1 0 0 0 0 0
0 0 0 0 0 0 0 0 2 3 2 0 0 6 21 40 50 40 20 6 1 0 0 1 1 2 3 5 8 10 10 7 4 1 0 0 1 1 0 0 0 0 0 0
0 0 0 0 0 0 0 0 0 0 0 0 1 3 9 18 26 25 11 2 0 0 0 0 0 0 0 0 1 1 1 1 1 1 0 0 0 0 0 0 0 0 0 0
0 0 0 0 0 0 0 0 0 0 0 0 0 1 2 5 9 10 5 0 0 0 0 0 0 0 0 0 0 0 0 0 0 0 0 0 0 0 0 0 0 0 0 0
0 0 0 0 0 0 0 0 0 0 0 0 0 0 0 0 2 3 1 0 0 0 0 0 0 0 0 0 0 0 0 0 0 0 0 0 0 0 0 0 0 0 0 0
0 0 0 0 0 0 0 0 0 0 0 0 0 0 0 0 0 0 0 0 0 0 0 0 0 0 0 0 0 0 0 0 0 0 0 0 0 0 0 0 0 0 0 0
0 0 0 0 0 0 0 0 0 0 0 0 0 0 0 1 0 0 0 0 0 0 0 0 0 0 0 0 0 0 0 0 0 0 0 0 0 0 0 0 0 0 0 0
0 0 0 0 0 0 0 0 0 0 0 0 0 0 0 0 0 0 0 0 0 0 0 0 0 0 0 0 0 0 0 0 0 0 0 0 0 0 0 0 0 0 0 0
0 0 0 0 0 0 0 0 0 0 0 0 0 0 0 0 0 0 0 0 0 0 0 0 0 0 0 0 0 0 0 0 0 0 0 0 0 0 0 0 0 0 0 0
0 0 0 0 0 0 0 0 0 0 0 0 0 0 0 0 0 0 0 0 0 0 0 0 0 0 0 0 0 0 0 0 0 0 0 0 0 0 0 0 0 0 0 0
0 0 0 0 0 0 0 0 0 0 0 0 0 0 0 0 0 0 0 0 0 0 0 0 0 0 0 0 0 0 0 0 0 0 0 0 0 0 0 0 0 0 0 0
0 0 0 0 0 0 0 0 0 0 0 0 0 0 0 0 0 0 0 0 0 0 0 0 0 0 0 0 0 0 0 0 0 0 0 0 0 0 0 0 0 0 0 0
0 0 0 0 0 0 0 0 0 0 0 0 0 0 0 0 0 0 0 0 0 0 0 0 0 0 0 0 0 0 0 0 0 0 0 0 0 0 0 0 0 0 0 0
0 0 0 0 0 0 0 0 0 0 0 0 0 0 0 0 0 0 0 0 0 0 0 0 0 0 0 0 0 0 0 0 0 0 0 0 0 0 0 0 0 0 0 0
0 0 0 0 0 0 0 0 0 0 0 0 0 0 0 0 0 0 0 0 0 0 0 0 0 0 0 0 0 0 0 0 0 0 0 0 0 0 0 0 0 0 0 0
0 0 0 0 0 0 0 0 0 0 0 0 0 0 0 0 0 0 0 0 0 0 0 0 0 0 0 0 0 0 0 0 0 0 0 0 0 0 0 0 0 0 0 0
0 0 0 0 0 0 0 0 0 0 0 0 0 0 0 0 0 0 0 0 0 0 0 0 0 0 0 0 0 0 0 0 0 0 0 0 0 0 0 0 0 0 0 0
Wind_Speed
8 9 11 13 14 15 16 15 14 13 11 9 12 11 10 9 9 12 12 10 11 9 8 5 4 5 9 9 8 7 6 5 4 4 5 5 5 4 4 5 6 5 6 7
7 10 13 9 9 10 12 12 15 16 8 2 6 10 13 12 8 2 5 7 10 11 9 6 6 6 6 7 7 5 4 4 3 1 1 2 4 4 4 4 5 6 7 8
10 6 8 5 9 11 13 14 15 16 15 9 10 15 17 15 9 7 6 4 6 11 11 9 7 8 7 6 6 5 5 4 3 3 2 2 3 4 6 6 6 7 8 9
8 6 5 9 11 12 12 10 12 14 14 12 13 14 16 18 17 12 11 9 7 8 10 10 8 6 4 4 5 5 4 3 2 2 2 4 4 6 7 7 8 8 8 8
7 6 7 10 11 10 12 10 12 14 14 16 16 16 16 16 14 15 14 13 12 10 10 8 7 4 2 2 3 3 2 1 0 2 3 3 5 5 6 7 9 9 8 7
11 8 10 10 10 9 11 12 14 14 14 19 19 19 18 15 13 16 14 12 12 11 9 7 5 4 2 2 2 3 4 2 1 2 3 4 5 6 8 9 9 8 6 4
9 11 11 11 13 11 11 12 10 13 15 18 17 20 13 9 4 21 21 16 13 10 7 6 6 4 2 1 1 2 3 3 2 1 1 3 4 6 7 7 7 7 5 4
10 8 5 9 12 10 10 12 10 10 14 16 9 7 4 11 10 16 18 16 13 11 8 7 6 4 3 2 1 1 1 1 2 2 2 2 4 5 5 6 6 5 4 5
8 7 3 7 9 12 12 12 13 10 14 17 16 10 8 6 6 12 15 14 12 9 7 8 7 5 3 2 2 2 3 3 3 2 2 0 2 4 4 5 6 5 4 4
9 13 11 6 7 11 11 13 9 7 8 12 14 18 6 12 8 9 11 11 10 8 6 8 7 5 3 2 1 1 1 1 2 3 3 2 2 3 3 4 5 6 6 5
9 12 13 8 7 10 6 7 11 9 8 9 10 5 6 5 10 13 13 10 9 9 7 7 7 6 4 2 1 1 1 1 1 2 1 3 3 3 3 3 4 3 3 3
9 8 10 12 8 0 3 3 4 3 7 9 8 7 9 5 6 14 15 13 10 8 7 6 6 5 3 1 1 1 1 3 3 3 2 2 3 4 4 5 4 3 2 1
7 6 10 11 4 2 1 3 5 5 5 7 8 10 5 8 7 3 10 10 8 7 5 4 4 3 2 2 3 4 3 3 4 4 2 1 2 4 5 4 4 4 4 3
3 8 12 15 14 15 13 11 8 9 8 11 14 17 14 8 3 3 2 7 8 6 5 4 3 3 3 3 4 5 4 4 4 3 3 2 2 3 3 2 2 3 3 4
5 9 11 14 17 17 16 15 14 12 11 10 12 14 15 13 6 6 4 4 5 5 4 3 2 1 1 2 3 4 4 4 3 2 2 3 2 3 2 3 3 3 4 5
4 8 12 15 16 15 14 13 12 12 11 10 11 12 8 4 4 7 7 6 5 4 3 1 1 1 1 3 3 4 3 3 3 3 3 4 4 3 2 2 3 3 3 4
7 9 12 14 14 13 11 9 9 11 11 11 11 8 4 2 3 5 6 6 5 4 4 3 1 1 2 4 4 5 2 2 2 3 4 5 5 4 4 4 6 6 6 7
6 7 8 13 13 12 6 4 7 9 9 7 7 4 2 2 3 4 5 4 4 4 3 3 1 1 3 4 5 5 3 2 1 3 4 5 5 5 5 6 7 7 6 6
7 3 7 9 11 11 9 5 3 7 11 7 3 2 1 2 4 6 8 7 7 6 4 3 2 2 3 4 5 4 3 2 2 3 4 4 4 4 4 5 6 5 5 6
9 7 8 11 13 14 10 3 2 7 8 4 1 2 2 4 5 2 7 8 6 4 2 3 3 3 3 3 3 2 1 1 3 4 4 4 4 3 2 3 3 3 4 4
10 11 13 14 14 11 4 6 2 7 2 2 4 5 5 4 2 5 6 6 4 4 4 4 4 2 2 1 1 1 3 4 4 4 3 4 4 3 1 2 2 2 3 4
10 10 11 11 13 5 6 2 5 4 0 5 8 8 6 2 5 5 6 6 6 6 6 5 4 3 2 2 2 3 4 4 4 4 4 4 4 5 4 2 3 3 3 3
8 7 7 8 7 6 7 6 5 6 6 7 8 6 3 4 6 6 6 6 6 5 5 4 4 4 4 4 3 4 5 4 4 4 4 4 5 5 5 5 6 5 4 3
11 9 10 10 9 9 9 8 7 8 8 7 8 6 5 6 7 6 6 5 5 4 3 3 4 5 5 5 4 5 6 5 5 5 4 4 4 5 5 4 5 5 4 4
14 14 12 13 11 12 13 14 11 8 8 8 9 8 6 6 6 7 6 5 5 5 4 4 4 4 5 5 5 6 6 5 5 5 5 4 4 4 4 4 4 4 4 4
14 14 15 14 11 10 9 9 9 8 9 9 9 8 8 7 7 8 7 7 6 7 6 6 5 5 6 6 7 7 7 6 5 5 5 5 4 4 4 5 5 3 3 5
Wind_Direction
206 242 243 239 237 248 272 294 299 272 251 225 214 235 250 231 198 186 170 158 152 153 154 166 165 151 156 154 149 169 189 198 190 189 206 221 233 236 239 245 250 259 272 278
218 239 255 290 328 316 299 290 287 299 299 234 255 262 256 237 199 156 123 144 150 143 137 108 69 56 89 118 140 163 187 178 180 212 257 292 300 293 286 274 261 249 260 269
258 310 338 298 274 268 268 265 265 271 283 262 242 252 252 245 199 157 152 152 159 159 149 128 95 69 70 86 97 90 75 72 63 17 334 314 304 291 285 282 275 256 249 245
276 286 284 280 260 258 266 296 298 277 274 267 245 250 241 232 215 186 174 156 137 125 122 121 110 96 83 85 86 78 70 55 38 348 313 319 307 299 305 307 300 299 291 272
271 287 265 260 270 285 292 307 306 296 284 275 264 260 258 254 204 183 170 156 134 111 105 107 105 99 94 92 105 117 115 124 44 337 334 320 306 311 314 312 306 303 291 275
271 260 263 272 279 276 282 287 282 275 270 262 258 260 261 261 206 168 133 131 132 120 110 103 97 96 118 155 178 164 163 171 208 313 337 339 332 325 315 314 315 314 310 298
280 268 268 273 269 266 274 272 270 263 251 253 254 255 269 305 164 145 142 137 125 115 110 103 94 81 61 38 280 226 201 219 228 233 3 9 349 318 310 322 324 329 334 339
272 276 274 266 265 277 280 277 265 268 273 278 282 278 1 34 73 114 118 119 118 118 121 116 105 89 64 44 350 260 184 75 50 57 45 13 340 323 327 335 331 333 345 353
290 300 294 261 278 288 282 270 271 262 268 276 275 255 160 140 134 114 117 118 116 123 136 127 115 104 78 43 24 42 90 75 42 6 328 278 359 358 352 358 2 4 8 5
288 295 296 282 284 275 298 303 267 245 252 254 255 256 223 171 158 115 115 118 124 139 143 133 130 125 116 93 45 19 73 55 345 330 327 354 50 43 21 26 29 24 20 26
297 297 296 285 264 281 8 1 336 318 288 283 278 288 66 141 144 129 135 145 155 160 157 148 146 143 139 155 207 225 257 285 300 325 349 353 22 67 59 55 53 50 42 32
314 311 301 293 296 259 107 103 78 15 324 324 309 301 37 22 168 158 156 157 158 153 149 148 144 136 131 174 249 295 335 339 337 342 344 31 23 33 50 57 49 52 57 78
354 320 296 287 254 76 215 210 181 181 235 262 273 277 334 346 326 192 152 148 144 137 125 102 90 86 69 359 359 356 354 341 335 341 352 71 75 65 54 41 24 15 4 355
294 275 280 291 300 305 296 280 247 228 246 267 271 284 296 302 276 281 167 141 144 141 133 103 79 69 44 358 351 341 339 335 336 336 359 39 69 69 61 54 52 29 11 26
246 275 291 297 298 297 302 307 304 292 284 279 286 287 295 299 247 189 198 173 156 150 150 137 130 105 322 311 322 317 325 341 341 339 10 28 44 96 73 48 48 36 22 46
294 292 294 291 292 297 298 300 303 303 304 300 291 296 310 291 179 171 196 207 197 189 190 182 36 46 356 318 302 310 324 355 2 19 31 31 32 59 63 67 64 58 51 52
285 301 300 293 298 303 296 308 309 308 311 312 308 315 305 225 194 206 214 219 215 201 186 183 195 10 329 299 291 291 300 340 10 46 54 48 46 50 33 40 51 40 39 38
252 286 288 283 289 287 294 314 300 301 301 299 293 284 202 205 202 214 216 210 194 198 200 178 203 263 276 268 267 270 253 252 8 43 44 41 44 47 54 59 53 48 50 47
191 245 287 287 287 290 301 301 287 308 303 309 280 263 164 168 221 225 209 201 200 200 189 181 214 251 250 243 250 257 258 280 8 35 45 47 45 51 59 70 62 48 45 45
168 196 246 268 283 291 299 113 51 301 282 60 36 301 264 240 255 282 180 183 188 175 187 233 243 246 233 220 243 254 245 64 63 67 68 62 54 57 78 97 85 60 49 43
213 219 236 258 276 288 61 102 277 287 23 52 303 300 275 264 45 110 136 160 170 187 199 229 240 229 214 186 217 128 92 80 74 73 82 72 48 32 57 165 145 94 67 55
263 269 272 275 272 291 66 306 304 331 289 274 287 290 284 190 140 164 167 164 183 196 203 214 210 202 186 154 144 111 94 85 80 77 79 77 51 32 40 82 139 115 100 84
280 267 278 290 307 333 293 289 293 285 274 277 278 277 254 205 197 192 164 172 195 202 205 197 194 191 180 184 182 130 119 110 101 94 87 79 68 50 48 75 99 105 110 108
295 283 253 255 265 279 291 286 252 246 251 255 259 247 227 213 204 180 168 181 191 201 208 204 205 192 183 184 167 141 137 139 137 128 114 99 84 71 57 60 91 102 102 100
283 297 296 285 272 270 271 271 257 242 234 239 247 232 213 215 201 176 177 182 178 179 190 195 194 184 172 169 161 153 149 149 139 139 142 137 124 109 104 90 81 92 86 96
266 270 275 280 287 278 276 291 280 235 219 226 241 231 206 202 200 186 177 168 171 177 179 190 189 171 155 159 161 153 154 161 163 167 172 176 174 162 152 142 136 83 122 138